LILACSAT-2              
1 40908U 15049K   22143.60875389  .00005370  00000+0  28485-3 0  9992
2 40908  97.5165 144.4413 0017143 101.3151  23.5135 15.15654154368727
XW-2E                   
1 40909U 15049L   22143.51929139  .00016251  00000+0  68955-3 0  9992
2 40909  97.4655 151.5687 0014064  67.4863  84.0918 15.23088929369614
XW-2F                   
1 40910U 15049M   22143.56374161  .00016173  00000+0  69662-3 0  9997
2 40910  97.4729 150.7419 0015046  68.0767  49.8834 15.22566729369392
XW-2B                   
1 40911U 15049N   22143.50024955  .00010375  00000+0  49262-3 0  9997
2 40911  97.4910 147.6874 0015165  84.6738  66.2779 15.19329275369063
KAITUO 1B               
1 40912U 15049P   22143.55192513  .00018405  00000+0  72434-3 0  9998
2 40912  97.4379 155.0819 0013991  38.1228  80.3710 15.25595729369954
TIANWANG 1A (TW-1A)     
1 40928U 15051D   22143.51756154  .00059531  00000+0  79301-3 0  9996
2 40928  97.0408 166.4181 0010492 117.7596 346.4520 15.57888555374355
LAPAN-A2                
1 40931U 15052B   22143.26063086  .00001140  00000+0  69346-4 0  9990
2 40931   6.0003 348.7661 0012826 175.2135 184.8261 14.76802823359611
[email protected]               
1 41459U 16025D   22143.42793085  .00014717  00000+0  64244-3 0  9999
2 41459  98.1843 306.7401 0145925 354.7380   5.2326 15.13066162333711
AAUSAT 4                
1 41460U 16025E   22143.44156064  .00023273  00000+0  90784-3 0  9998
2 41460  98.1794 312.7347 0127208 331.5215  27.9222 15.18658082334145
NUSAT-1 (FRESCO)        
1 41557U 16033B   22143.60316291  .00021073  00000+0  63761-3 0  9993
2 41557  97.3864 241.2703 0012736 107.7163   0.5270 15.34137015333579
BEESAT-4                
1 41619U 16040W   22143.40652365  .00019921  00000+0  67677-3 0  9992
2 41619  97.2184 194.7136 0009632 194.8838 165.2121 15.30467009316896
CAS-2T & KS-1Q          
1 41847U 16066G   22143.44215823  .00000679  00000+0  11318-3 0  9992
2 41847  98.5518 208.1351 0362748 284.7505  71.3755 14.38552795290753
NAYIF-1 (EO-88)         
1 42017U 17008BX  22143.45498056  .00023252  00000+0  71009-3 0  9996
2 42017  97.2702 209.9423 0003987 350.4249   9.6917 15.33894653293245
ZHUHAI-1 02 (CAS-4B)    
1 42759U 17034B   22143.65068287  .00005241  00000+0  31482-3 0  9998
2 42759  43.0170 109.3985 0007723 141.3311 207.5436 15.11724547272591
ZHUHAI-1 01 (CAS-4A)    
1 42761U 17034D   22143.65499793  .00005293  00000+0  31695-3 0  9994
2 42761  43.0165 108.1754 0007861 139.3282  29.9475 15.11817933272609
MAX VALIER SAT          
1 42778U 17036P   22143.55008827  .00014445  00000+0  55256-3 0  9995
2 42778  97.2077 185.5105 0012414  61.8416 298.4076 15.26607300273104
RADFXSAT (FOX-1B)       
1 43017U 17073E   22143.51359128  .00005275  00000+0  40203-3 0  9999
2 43017  97.6775  38.7225 0247511 269.5291  87.7559 14.81273847243420
FOX-1D (AO-92)          
1 43137U 18004AC  22143.42585407  .00014750  00000+0  52624-3 0  9996
2 43137  97.3686 218.8149 0009291  93.8419 266.3883 15.28941400242522
DIWATA-2B               
1 43678U 18084H   22143.63787899  .00001154  00000+0  11920-3 0  9994
2 43678  97.9665 276.6187 0010261  15.1703 344.9818 14.92128337194153
ES'HAIL 2               
1 43700U 18090A   22143.46819694  .00000135  00000+0  00000+0 0  9998
2 43700   0.0115 323.0508 0001168 102.7552   9.5680  1.00271406 13027
FOX-1CLIFF (AO-95)      
1 43770U 18099N   22143.44744239  .00004404  00000+0  39365-3 0  9997
2 43770  97.6203 210.4469 0013966   5.1535 354.9828 14.96320263189272
ITASAT 1                
1 43786U 18099AE  22142.17284358  .00003835  00000+0  34214-3 0  9999
2 43786  97.6233 210.1094 0014690   1.5593 358.5672 14.96473746189128
JY1SAT (JO-97)          
1 43803U 18099AX  22143.13490351  .00005307  00000+0  46571-3 0  9993
2 43803  97.6199 210.7958 0014243   0.0118   0.1102 14.96950452189284
UWE-4                   
1 43880U 18111E   22143.55366668  .00006031  00000+0  51431-3 0  9998
2 43880  97.6694  50.2978 0013447  51.9680 308.2753 14.98023369185978
NEXUS (FO-99)           
1 43937U 19003F   22143.06150920  .00019024  00000+0  65078-3 0  9998
2 43937  97.1325 177.4083 0019305 240.7781 119.1530 15.30113810186099
PSAT2 (NO-104)          
1 44354U 19036R   22142.90251050  .00100901 -37410-5  96489-3 0  9993
2 44354  28.5265 355.0721 0242817  43.1945 318.7430 15.36225217160730
JAISAT-1                
1 44419U 19038F   22143.43995556  .00012209  00000+0  61875-3 0  9994
2 44419  97.6344 113.3718 0018284 212.8012 147.2088 15.16971427159266
DUCHIFAT-3              
1 44854U 19089C   22143.57579315  .00006654  00000+0  51768-3 0  9996
2 44854  36.9665 247.8129 0008624  12.0586  68.8178 15.00930897134195
CAS-6 (TO-108)          
1 44881U 19093C   22143.52470300  .00001012  00000+0  13503-3 0  9998
2 44881  97.8922 223.0909 0013651 267.3885  92.5769 14.81699792131081
RS-44 & BREEZE-KM R/B   
1 44909U 19096E   22143.56389158  .00000001  00000+0 -39840-4 0  9997
2 44909  82.5227 246.8071 0217561  18.2332 342.6416 12.79713196112379
ORBITAL FACTORY 2 (OF-2)
1 45113U 19071C   22143.39847534  .00032752  00000+0  70455-3 0  9999
2 45113  51.6376 182.5405 0010575  71.4931 288.7203 15.44285558129506
HUSKYSAT-1 (HO-107)     
1 45119U 19071J   22143.39042936  .00029574  00000+0  65440-3 0  9994
2 45119  51.6379 182.4644 0010385  68.9624 291.2472 15.43504208129498
BY70-2                  
1 45857U 20042B   22143.47293441  .00012008  00000+0  16098-2 0  9999
2 45857  97.9545 220.5578 0011189 189.1167 170.9876 14.79489635101761
SALSAT                  
1 46495U 20068K   22143.42129434  .00003767  00000+0  27337-3 0  9992
2 46495  97.7283  84.7181 0016804  10.0895 350.0665 15.04410093 90424
BY70-3                  
1 46839U 20079N   22143.51792031  .00033559  00000+0  81290-3 0  9995
2 46839  97.1986 215.9545 0006781  74.0456  36.6650 15.40995896 86401
RADFXSAT-2 (AO-109)     
1 47311U 21002C   22143.22801594  .00013711  00000+0  55564-3 0  9994
2 47311  60.6852  97.1792 0012360 304.6680  55.3242 15.24904696 74614
UVSQ-SAT                
1 47438U 21006AB  22143.38906168  .00010480  00000+0  55685-3 0  9992
2 47438  97.4382 202.9165 0011761  10.3700 349.7773 15.15420991 73482
DIY-1 (ARDUIQUBE)       
1 47963U 21022AH  22143.21692028  .00023502  00000+0  13362-2 0  9996
2 47963  97.5331  44.8786 0015911 213.3165 146.7066 15.12772959 63135
XW-3 (CAS-9)            
1 50466U 21131B   22143.54890717  .00000442  00000+0  15930-3 0  9992
2 50466  98.5806 220.8140 0004050 207.0608 153.0368 14.38490990 21330
